User: anonymous   Login
Location: Caltech
(34.1382°N, 118.1253°W)
Time: 09:27:40
(UTC-08:00)
Language:

Cosmos 1943 Rocket - Orbit

View from above orbital plane
View from above orbital plane
View from above satellite
View from above satellite

Ground track
Ground track

The orbit data is extracted from the following two-line orbital elements,

1 19120U 88039B   18055.28588866 +.00000013 +00000-0 +28887-4 0  9992
2 19120 071.0157 152.2481 0021404 167.7158 192.4494 14.19182684541888
Epoch (UTC): 24 February 2018 06:51:40
Eccentricity: 0.0021404
inclination: 71.0157°
perigee height: 812 km
apogee height: 843 km
right ascension of ascending node: 152.2481°
argument of perigee: 167.7158°
revolutions per day: 14.19182684
mean anomaly at epoch: 192.4494°
orbit number at epoch: 54188

The dashed part of the orbit path shows where the satellite is in the earth's shadow,  

DLR